| time (UTC) | temp F | wind direction | speed MPH | gust MPH | rain 1hr in | rain 24hr in | rain mn in | humidity % | barometer mb |
| 20260502151646 | 58 | 38 | 4.0 | 8.0 | 0.00 | 0.00 | 0.00 | 32 | 1021.2 |
| 20260502150630 | 57 | 50 | 4.0 | 10.0 | 0.00 | 0.00 | 0.00 | 33 | 1021.0 |
| 20260502130638 | 50 | 44 | 4.0 | 7.0 | 0.00 | 0.00 | 0.00 | 39 | 1020.7 |
| 20260502123612 | 49 | 53 | 5.0 | 9.0 | 0.00 | 0.00 | 0.00 | 39 | 1020.5 |
| 20260502122612 | 49 | 49 | 4.0 | 9.0 | 0.00 | 0.00 | 0.00 | 40 | 1020.5 |
| 20260502121616 | 49 | 34 | 5.0 | 9.0 | 0.00 | 0.00 | 0.00 | 39 | 1020.4 |
| 20260502120621 | 49 | 26 | 4.0 | 8.0 | 0.00 | 0.00 | 0.00 | 40 | 1020.5 |
| 20260502115613 | 49 | 32 | 4.0 | 10.0 | 0.00 | 0.00 | 0.00 | 40 | 1020.4 |
| 20260502114632 | 50 | 26 | 5.0 | 9.0 | 0.00 | 0.00 | 0.00 | 39 | 1020.4 |
| 20260502113635 | 50 | 45 | 4.0 | 8.0 | 0.00 | 0.00 | 0.00 | 40 | 1020.4 |
| 20260502112614 | 49 | 32 | 4.0 | 9.0 | 0.00 | 0.00 | 0.00 | 40 | 1020.5 |
| 20260502111613 | 49 | 22 | 4.0 | 7.0 | 0.00 | 0.00 | 0.00 | 41 | 1020.6 |
| 20260502110633 | 49 | 38 | 5.0 | 8.0 | 0.00 | 0.00 | 0.00 | 41 | 1020.6 |
| 20260502105627 | 49 | 33 | 4.0 | 6.0 | 0.00 | 0.00 | 0.00 | 41 | 1020.6 |
| 20260502104627 | 49 | 39 | 3.0 | 7.0 | 0.00 | 0.00 | 0.00 | 42 | 1020.6 |
| 20260502103627 | 49 | 48 | 4.0 | 6.0 | 0.00 | 0.00 | 0.00 | 43 | 1020.6 |
| 20260502102611 | 49 | 23 | 4.0 | 6.0 | 0.00 | 0.00 | 0.00 | 43 | 1020.5 |
| 20260502101612 | 49 | 27 | 4.0 | 8.0 | 0.00 | 0.00 | 0.00 | 46 | 1020.5 |
| 20260502100611 | 49 | 32 | 4.0 | 6.0 | 0.00 | 0.00 | 0.00 | 50 | 1020.5 |
| 20260502090630 | 49 | 58 | 3.0 | 5.0 | 0.00 | 0.00 | 0.00 | 51 | 1020.5 |
| 20260502070620 | 53 | 44 | 3.0 | 5.0 | 0.00 | 0.00 | 0.00 | 41 | 1020.2 |
| 20260502065634 | 52 | 331 | 3.0 | 4.0 | 0.00 | 0.00 | 0.00 | 45 | 1020.2 |
| 20260502064632 | 53 | 53 | 3.0 | 4.0 | 0.00 | 0.00 | 0.00 | 48 | 1020.3 |
| 20260502063650 | 53 | 53 | 3.0 | 4.0 | 0.00 | 0.00 | 0.00 | 42 | 1020.3 |
| 20260502062634 | 53 | 53 | 3.0 | 4.0 | 0.00 | 0.00 | 0.00 | 45 | 1020.4 |
| 20260502061612 | 53 | 53 | 2.0 | 3.0 | 0.00 | 0.00 | 0.00 | 42 | 1020.3 |
| 20260502060623 | 53 | 53 | 3.0 | 4.0 | 0.00 | 0.00 | 0.00 | 44 | 1020.2 |
| 20260502055615 | 53 | 53 | 2.0 | 3.0 | 0.00 | 0.00 | 0.00 | 43 | 1020.2 |
| 20260502054619 | 54 | 53 | 2.0 | 3.0 | 0.00 | 0.00 | 0.00 | 40 | 1020.2 |
| 20260502053619 | 54 | 53 | 2.0 | 3.0 | 0.00 | 0.00 | 0.00 | 41 | 1020.2 |
| 20260502052620 | 54 | 53 | 2.0 | 4.0 | 0.00 | 0.00 | 0.00 | 41 | 1020.1 |
| 20260502051640 | 54 | 53 | 2.0 | 3.0 | 0.00 | 0.00 | 0.00 | 41 | 1020.2 |
| 20260502050622 | 55 | 53 | 3.0 | 4.0 | 0.00 | 0.00 | 0.00 | 41 | 1020.2 |
| 20260502045613 | 54 | 53 | 3.0 | 4.0 | 0.00 | 0.00 | 0.00 | 40 | 1020.1 |
| 20260502044613 | 55 | 46 | 0.0 | 1.0 | 0.00 | 0.00 | 0.00 | 40 | 1020.1 |
| 20260502043616 | 55 | 46 | 1.0 | 3.0 | 0.00 | 0.00 | 0.00 | 39 | 1020.1 |
| 20260502042637 | 55 | 46 | 3.0 | 4.0 | 0.00 | 0.00 | 0.00 | 41 | 1020.0 |
| 20260502041616 | 55 | 43 | 3.0 | 3.0 | 0.00 | 0.00 | 0.00 | 43 | 1020.0 |
| 20260502040616 | 55 | 43 | 1.0 | 2.0 | 0.00 | 0.00 | 0.00 | 40 | 1019.9 |
| 20260502035651 | 56 | 43 | 0.0 | 3.0 | 0.00 | 0.00 | 0.00 | 40 | 1019.7 |
| 20260502034650 | 56 | 43 | 2.0 | 3.0 | 0.00 | 0.00 | 0.00 | 39 | 1019.6 |
| 20260502033648 | 56 | 43 | 2.0 | 3.0 | 0.00 | 0.00 | 0.00 | 43 | 1019.6 |
| 20260502032627 | 56 | 43 | 1.0 | 4.0 | 0.00 | 0.00 | 0.00 | 41 | 1019.5 |
| 20260502031611 | 57 | 274 | 3.0 | 4.0 | 0.00 | 0.00 | 0.00 | 44 | 1019.4 |
| 20260502030631 | 58 | 274 | 0.0 | 1.0 | 0.00 | 0.00 | 0.00 | 39 | 1019.2 |
| 20260502025622 | 58 | 274 | 1.0 | 2.0 | 0.00 | 0.00 | 0.00 | 39 | 1019.1 |
| 20260502024643 | 59 | 274 | 1.0 | 2.0 | 0.00 | 0.00 | 0.00 | 38 | 1019.0 |
| 20260502023644 | 59 | 274 | 1.0 | 2.0 | 0.00 | 0.00 | 0.00 | 38 | 1018.9 |
| 20260502022643 | 60 | 274 | 2.0 | 4.0 | 0.00 | 0.00 | 0.00 | 36 | 1018.9 |
| 20260502021620 | 61 | 274 | 4.0 | 9.0 | 0.00 | 0.00 | 0.00 | 34 | 1018.8 |
| 20260502020624 | 61 | 263 | 6.0 | 9.0 | 0.00 | 0.00 | 0.00 | 34 | 1018.8 |
| 20260502015616 | 62 | 284 | 7.0 | 10.0 | 0.00 | 0.00 | 0.00 | 34 | 1018.6 |
| 20260502014615 | 62 | 275 | 7.0 | 12.0 | 0.00 | 0.00 | 0.00 | 34 | 1018.6 |
| 20260502013636 | 63 | 262 | 7.0 | 11.0 | 0.00 | 0.00 | 0.00 | 33 | 1018.5 |
| 20260502012618 | 64 | 294 | 10.0 | 14.0 | 0.00 | 0.00 | 0.00 | 33 | 1018.4 |
| 20260502011618 | 65 | 276 | 7.0 | 12.0 | 0.00 | 0.00 | 0.00 | 33 | 1018.4 |
| 20260502010619 | 65 | 283 | 7.0 | 12.0 | 0.00 | 0.00 | 0.00 | 25 | 1018.4 |
| 20260502005615 | 66 | 286 | 10.0 | 15.0 | 0.00 | 0.00 | 0.00 | 24 | 1018.4 |
| 20260502004615 | 65 | 291 | 8.0 | 13.0 | 0.00 | 0.00 | 0.00 | 24 | 1018.4 |
| 20260502003615 | 65 | 284 | 7.0 | 13.0 | 0.00 | 0.00 | 0.00 | 24 | 1018.3 |
| 20260502002619 | 66 | 284 | 7.0 | 13.0 | 0.00 | 0.00 | 0.00 | 24 | 1018.4 |
| 20260502001619 | 66 | 305 | 7.0 | 13.0 | 0.00 | 0.00 | 0.00 | 24 | 1018.6 |
| 20260502000621 | 66 | 318 | 7.0 | 11.0 | 0.00 | 0.00 | 0.00 | 24 | 1018.5 |
| 20260501235615 | 66 | 286 | 9.0 | 13.0 | 0.00 | 0.00 | 0.00 | 25 | 1018.6 |
| 20260501234619 | 65 | 286 | 8.0 | 16.0 | 0.00 | 0.00 | 0.00 | 27 | 1018.6 |
| 20260501233618 | 65 | 308 | 11.0 | 19.0 | 0.00 | 0.00 | 0.00 | 25 | 1018.6 |
| 20260501232619 | 65 | 289 | 10.0 | 17.0 | 0.00 | 0.00 | 0.00 | 25 | 1018.6 |
| 20260501231623 | 65 | 291 | 10.0 | 15.0 | 0.00 | 0.00 | 0.00 | 26 | 1018.6 |
| 20260501230623 | 65 | 272 | 10.0 | 17.0 | 0.00 | 0.00 | 0.00 | 26 | 1018.8 |
| 20260501225616 | 65 | 277 | 13.0 | 19.0 | 0.00 | 0.00 | 0.00 | 26 | 1018.8 |
| 20260501224621 | 65 | 294 | 11.0 | 16.0 | 0.00 | 0.00 | 0.00 | 25 | 1018.9 |
| 20260501223621 | 65 | 311 | 12.0 | 20.0 | 0.00 | 0.00 | 0.00 | 25 | 1018.9 |
| 20260501222620 | 64 | 325 | 12.0 | 16.0 | 0.00 | 0.00 | 0.00 | 27 | 1019.1 |
| 20260501221639 | 64 | 286 | 11.0 | 19.0 | 0.00 | 0.00 | 0.00 | 25 | 1019.2 |
| 20260501220621 | 64 | 294 | 13.0 | 20.0 | 0.00 | 0.00 | 0.00 | 27 | 1019.2 |
| 20260501215614 | 64 | 288 | 12.0 | 17.0 | 0.00 | 0.00 | 0.00 | 28 | 1019.4 |
| 20260501214615 | 64 | 271 | 14.0 | 23.0 | 0.00 | 0.00 | 0.00 | 28 | 1019.4 |
| 20260501213639 | 64 | 293 | 13.0 | 19.0 | 0.00 | 0.00 | 0.00 | 28 | 1019.4 |
| 20260501212638 | 64 | 280 | 12.0 | 20.0 | 0.00 | 0.00 | 0.00 | 28 | 1019.5 |
| 20260501211617 | 63 | 278 | 16.0 | 21.0 | 0.00 | 0.00 | 0.00 | 27 | 1019.6 |
| 20260501210637 | 64 | 279 | 13.0 | 20.0 | 0.00 | 0.00 | 0.00 | 27 | 1019.6 |
| 20260501205614 | 63 | 260 | 13.0 | 18.0 | 0.00 | 0.00 | 0.00 | 28 | 1019.7 |
| 20260501204634 | 63 | 266 | 14.0 | 20.0 | 0.00 | 0.00 | 0.00 | 28 | 1019.7 |
| 20260501203615 | 64 | 273 | 13.0 | 19.0 | 0.00 | 0.00 | 0.00 | 28 | 1019.7 |
| 20260501202612 | 63 | 248 | 11.0 | 16.0 | 0.00 | 0.00 | 0.00 | 29 | 1019.8 |
| 20260501201616 | 63 | 263 | 10.0 | 17.0 | 0.00 | 0.00 | 0.00 | 29 | 1019.7 |
| 20260501200615 | 62 | 252 | 11.0 | 18.0 | 0.00 | 0.00 | 0.00 | 28 | 1019.7 |
| 20260501195627 | 63 | 229 | 8.0 | 17.0 | 0.00 | 0.00 | 0.00 | 28 | 1019.7 |
| 20260501194631 | 63 | 288 | 10.0 | 17.0 | 0.00 | 0.00 | 0.00 | 29 | 1019.9 |
| 20260501193628 | 63 | 247 | 8.0 | 12.0 | 0.00 | 0.00 | 0.00 | 29 | 1020.0 |
| 20260501192649 | 62 | 311 | 4.0 | 14.0 | 0.00 | 0.00 | 0.00 | 20 | 1020.1 |
| 20260501191627 | 63 | 288 | 7.0 | 12.0 | 0.00 | 0.00 | 0.00 | 20 | 1020.2 |
| 20260501190631 | 63 | 32 | 5.0 | 8.0 | 0.00 | 0.00 | 0.00 | 23 | 1020.3 |
| 20260501185639 | 62 | 98 | 4.0 | 12.0 | 0.00 | 0.00 | 0.00 | 21 | 1020.5 |
| 20260501184617 | 63 | 77 | 4.0 | 10.0 | 0.00 | 0.00 | 0.00 | 22 | 1020.5 |
| 20260501183617 | 62 | 36 | 4.0 | 12.0 | 0.00 | 0.00 | 0.00 | 21 | 1020.7 |
| 20260501182620 | 61 | 63 | 4.0 | 11.0 | 0.00 | 0.00 | 0.00 | 23 | 1020.8 |
| 20260501181621 | 61 | 69 | 8.0 | 13.0 | 0.00 | 0.00 | 0.00 | 24 | 1020.8 |
| 20260501180629 | 61 | 80 | 3.0 | 8.0 | 0.00 | 0.00 | 0.00 | 24 | 1020.8 |
| 20260501175620 | 61 | 101 | 10.0 | 15.0 | 0.00 | 0.00 | 0.00 | 26 | 1020.9 |
| 20260501174624 | 60 | 86 | 8.0 | 15.0 | 0.00 | 0.00 | 0.00 | 27 | 1020.9 |
| 20260501173624 | 60 | 43 | 5.0 | 11.0 | 0.00 | 0.00 | 0.00 | 27 | 1020.9 |
| 20260501171623 | 59 | 70 | 7.0 | 14.0 | 0.00 | 0.00 | 0.00 | 26 | 1021.0 |
| 20260501170628 | 59 | 78 | 7.0 | 14.0 | 0.00 | 0.00 | 0.00 | 27 | 1021.0 |
| 20260501165621 | 59 | 94 | 8.0 | 19.0 | 0.00 | 0.00 | 0.00 | 27 | 1021.2 |
| 20260501164621 | 59 | 44 | 10.0 | 19.0 | 0.00 | 0.00 | 0.00 | 27 | 1021.2 |
| 20260501163625 | 58 | 50 | 8.0 | 17.0 | 0.00 | 0.00 | 0.00 | 28 | 1021.2 |
| 20260501162625 | 59 | 101 | 5.0 | 12.0 | 0.00 | 0.00 | 0.00 | 28 | 1021.1 |
| 20260501161625 | 58 | 16 | 5.0 | 14.0 | 0.00 | 0.00 | 0.00 | 29 | 1020.9 |
| 20260501160629 | 58 | 63 | 4.0 | 12.0 | 0.00 | 0.00 | 0.00 | 32 | 1020.9 |
| 20260501155620 | 57 | 78 | 4.0 | 8.0 | 0.00 | 0.00 | 0.00 | 30 | 1020.9 |
| 20260501154621 | 56 | 251 | 3.0 | 5.0 | 0.00 | 0.00 | 0.00 | 29 | 1020.9 |
| 20260501153625 | 56 | 50 | 0.0 | 3.0 | 0.00 | 0.00 | 0.00 | 30 | 1020.9 |
| 20260501152624 | 56 | 50 | 1.0 | 8.0 | 0.00 | 0.00 | 0.00 | 32 | 1021.0 |